Time,TemperatureF,DewpointF,PressureIn,WindDirection,WindDirectionDegrees,WindSpeedMPH,WindSpeedGustMPH,Humidity,HourlyPrecipIn,Conditions,Clouds,dailyrainin,SoftwareType,DateUTC
2013-01-23 00:00:00,14.0,9.3,30.29,South,180,2.0,4.0,81,0.00,,,0.00,VWS V14.00,2013-01-23 06:00:00,
2013-01-23 00:02:00,14.1,9.4,30.30,South,180,0.0,2.0,81,0.00,,,0.00,VWS V14.00,2013-01-23 06:02:00,
2013-01-23 00:07:00,14.1,9.4,30.29,South,180,2.0,3.0,81,0.00,,,0.00,VWS V14.00,2013-01-23 06:07:00,
2013-01-23 00:12:00,14.0,11.4,30.28,South,180,4.0,4.0,89,0.00,,,0.00,VWS V14.00,2013-01-23 06:12:00,
2013-01-23 00:17:00,14.0,9.3,30.28,South,180,2.0,5.0,81,0.00,,,0.00,VWS V14.00,2013-01-23 06:17:00,
2013-01-23 00:23:00,14.0,9.3,30.27,South,180,4.0,7.0,81,0.00,,,0.00,VWS V14.00,2013-01-23 06:23:00,
2013-01-23 00:28:00,14.0,9.3,30.27,South,180,5.0,8.0,81,0.00,,,0.00,VWS V14.00,2013-01-23 06:28:00,
2013-01-23 00:30:00,14.0,9.3,30.27,South,180,3.0,8.0,81,0.00,,,0.00,VWS V14.00,2013-01-23 06:30:00,
2013-01-23 00:33:00,14.0,9.3,30.28,South,180,5.0,6.0,81,0.00,,,0.00,VWS V14.00,2013-01-23 06:33:00,
2013-01-23 00:38:00,14.0,9.3,30.27,South,180,3.0,7.0,81,0.00,,,0.00,VWS V14.00,2013-01-23 06:38:00,
2013-01-23 00:43:00,14.4,9.4,30.27,South,180,7.0,7.0,80,0.00,,,0.00,VWS V14.00,2013-01-23 06:43:00,
2013-01-23 00:48:00,14.4,9.4,30.26,South,181,4.0,7.0,80,0.00,,,0.00,VWS V14.00,2013-01-23 06:48:00,
2013-01-23 00:53:00,14.3,9.3,30.26,South,181,2.0,9.0,80,0.00,,,0.00,VWS V14.00,2013-01-23 06:53:00,
2013-01-23 00:58:00,14.3,9.3,30.26,South,181,2.0,9.0,80,0.00,,,0.00,VWS V14.00,2013-01-23 06:58:00,
2013-01-23 01:00:00,14.3,9.3,30.26,South,181,2.0,9.0,80,0.00,,,0.00,VWS V14.00,2013-01-23 07:00:00,
2013-01-23 01:03:00,14.2,9.2,30.26,South,181,2.0,5.0,80,0.00,,,0.00,VWS V14.00,2013-01-23 07:03:00,
2013-01-23 01:08:00,14.1,9.1,30.26,South,181,3.0,5.0,80,0.00,,,0.00,VWS V14.00,2013-01-23 07:08:00,
2013-01-23 01:13:00,14.0,9.0,30.26,South,181,3.0,5.0,80,0.00,,,0.00,VWS V14.00,2013-01-23 07:13:00,
2013-01-23 01:18:00,13.9,8.9,30.26,South,181,3.0,5.0,80,0.00,,,0.00,VWS V14.00,2013-01-23 07:18:00,
2013-01-23 01:23:00,13.8,8.8,30.26,South,181,5.0,6.0,80,0.00,,,0.00,VWS V14.00,2013-01-23 07:23:00,
2013-01-23 01:28:00,13.8,9.1,30.26,South,181,4.0,5.0,81,0.00,,,0.00,VWS V14.00,2013-01-23 07:28:00,
2013-01-23 01:30:00,13.7,9.0,30.26,South,181,4.0,6.0,81,0.00,,,0.00,VWS V14.00,2013-01-23 07:30:00,
2013-01-23 01:34:00,13.7,9.0,30.25,South,181,3.0,5.0,81,0.00,,,0.00,VWS V14.00,2013-01-23 07:34:00,
2013-01-23 01:39:00,13.7,9.0,30.25,South,181,4.0,7.0,81,0.00,,,0.00,VWS V14.00,2013-01-23 07:39:00,
2013-01-23 01:44:00,13.7,9.0,30.25,South,181,4.0,7.0,81,0.00,,,0.00,VWS V14.00,2013-01-23 07:44:00,
2013-01-23 01:49:00,13.7,9.0,30.25,South,181,4.0,7.0,81,0.00,,,0.00,VWS V14.00,2013-01-23 07:49:00,
2013-01-23 01:54:00,13.7,9.0,30.24,South,181,2.0,7.0,81,0.00,,,0.00,VWS V14.00,2013-01-23 07:54:00,
2013-01-23 01:59:00,13.7,9.0,30.25,South,181,2.0,4.0,81,0.00,,,0.00,VWS V14.00,2013-01-23 07:59:00,
2013-01-23 02:00:00,13.7,9.0,30.25,South,181,4.0,7.0,81,0.00,,,0.00,VWS V14.00,2013-01-23 08:00:00,
2013-01-23 02:04:00,13.7,9.0,30.25,South,181,2.0,5.0,81,0.00,,,0.00,VWS V14.00,2013-01-23 08:04:00,
2013-01-23 02:09:00,13.7,9.0,30.25,South,181,5.0,5.0,81,0.00,,,0.00,VWS V14.00,2013-01-23 08:09:00,
2013-01-23 02:14:00,13.7,9.0,30.25,South,181,3.0,5.0,81,0.00,,,0.00,VWS V14.00,2013-01-23 08:14:00,
2013-01-23 02:19:00,13.6,8.9,30.25,South,181,3.0,6.0,81,0.00,,,0.00,VWS V14.00,2013-01-23 08:19:00,
2013-01-23 02:24:00,13.6,8.9,30.25,South,181,2.0,6.0,81,0.00,,,0.00,VWS V14.00,2013-01-23 08:24:00,
2013-01-23 02:29:00,13.6,9.1,30.25,South,181,3.0,5.0,82,0.00,,,0.00,VWS V14.00,2013-01-23 08:29:00,
2013-01-23 02:30:00,13.6,9.1,30.25,South,181,3.0,6.0,82,0.00,,,0.00,VWS V14.00,2013-01-23 08:30:00,
2013-01-23 02:34:00,13.6,9.1,30.25,South,181,5.0,7.0,82,0.00,,,0.00,VWS V14.00,2013-01-23 08:34:00,
2013-01-23 02:39:00,13.8,9.3,30.25,South,182,4.0,8.0,82,0.00,,,0.00,VWS V14.00,2013-01-23 08:39:00,
2013-01-23 02:44:00,14.0,9.5,30.25,South,182,3.0,8.0,82,0.00,,,0.00,VWS V14.00,2013-01-23 08:44:00,
2013-01-23 02:49:00,14.2,9.4,30.24,South,182,4.0,8.0,81,0.00,,,0.00,VWS V14.00,2013-01-23 08:49:00,
2013-01-23 02:55:00,14.3,9.6,30.24,South,182,3.0,8.0,81,0.00,,,0.00,VWS V14.00,2013-01-23 08:55:00,
2013-01-23 03:00:00,14.3,9.6,30.24,South,182,3.0,6.0,81,0.00,,,0.00,VWS V14.00,2013-01-23 09:00:00,
2013-01-23 03:05:00,14.3,9.6,30.24,South,182,4.0,7.0,81,0.00,,,0.00,VWS V14.00,2013-01-23 09:05:00,
2013-01-23 03:10:00,14.3,9.6,30.24,South,182,4.0,7.0,81,0.00,,,0.00,VWS V14.00,2013-01-23 09:10:00,
2013-01-23 03:15:00,14.3,9.6,30.24,South,182,1.0,7.0,81,0.00,,,0.00,VWS V14.00,2013-01-23 09:15:00,
2013-01-23 03:20:00,14.2,9.2,30.24,South,182,3.0,7.0,80,0.00,,,0.00,VWS V14.00,2013-01-23 09:20:00,
2013-01-23 03:25:00,14.1,9.4,30.23,South,182,5.0,7.0,81,0.00,,,0.00,VWS V14.00,2013-01-23 09:25:00,
2013-01-23 03:30:00,14.1,9.4,30.24,South,182,2.0,5.0,81,0.00,,,0.00,VWS V14.00,2013-01-23 09:30:00,
2013-01-23 03:36:00,14.1,9.4,30.23,South,182,4.0,6.0,81,0.00,,,0.00,VWS V14.00,2013-01-23 09:36:00,
2013-01-23 03:41:00,14.1,9.4,30.23,South,182,2.0,6.0,81,0.00,,,0.00,VWS V14.00,2013-01-23 09:41:00,
2013-01-23 03:47:00,14.1,9.4,30.23,South,182,3.0,6.0,81,0.00,,,0.00,VWS V14.00,2013-01-23 09:47:00,
2013-01-23 03:52:00,14.2,9.4,30.23,South,182,5.0,6.0,81,0.00,,,0.00,VWS V14.00,2013-01-23 09:52:00,
2013-01-23 03:57:00,14.1,9.4,30.22,South,182,3.0,6.0,81,0.00,,,0.00,VWS V14.00,2013-01-23 09:57:00,
2013-01-23 04:00:00,14.1,9.4,30.22,South,182,4.0,6.0,81,0.00,,,0.00,VWS V14.00,2013-01-23 10:00:00,
2013-01-23 04:03:00,14.1,9.4,30.22,South,182,4.0,8.0,81,0.00,,,0.00,VWS V14.00,2013-01-23 10:03:00,
2013-01-23 04:08:00,14.1,9.4,30.22,South,182,5.0,8.0,81,0.00,,,0.00,VWS V14.00,2013-01-23 10:08:00,
2013-01-23 04:13:00,14.2,9.4,30.22,South,182,4.0,8.0,81,0.00,,,0.00,VWS V14.00,2013-01-23 10:13:00,
2013-01-23 04:18:00,14.1,9.4,30.21,South,182,5.0,8.0,81,0.00,,,0.00,VWS V14.00,2013-01-23 10:18:00,
2013-01-23 04:23:00,14.1,9.4,30.21,South,182,4.0,8.0,81,0.00,,,0.00,VWS V14.00,2013-01-23 10:23:00,
2013-01-23 04:28:00,14.0,9.3,30.22,South,182,2.0,8.0,81,0.00,,,0.00,VWS V14.00,2013-01-23 10:28:00,
2013-01-23 04:30:00,14.0,9.3,30.22,South,182,2.0,8.0,81,0.00,,,0.00,VWS V14.00,2013-01-23 10:30:00,
2013-01-23 04:33:00,14.0,9.3,30.21,South,182,2.0,3.0,81,0.00,,,0.00,VWS V14.00,2013-01-23 10:33:00,
2013-01-23 04:38:00,13.9,9.2,30.21,South,182,3.0,4.0,81,0.00,,,0.00,VWS V14.00,2013-01-23 10:38:00,
2013-01-23 04:43:00,13.8,9.1,30.21,South,182,1.0,4.0,81,0.00,,,0.00,VWS V14.00,2013-01-23 10:43:00,
2013-01-23 04:48:00,13.7,9.2,30.21,South,182,2.0,4.0,82,0.00,,,0.00,VWS V14.00,2013-01-23 10:48:00,
2013-01-23 04:53:00,13.7,9.2,30.21,South,182,1.0,4.0,82,0.00,,,0.00,VWS V14.00,2013-01-23 10:53:00,
2013-01-23 04:58:00,13.7,9.2,30.20,South,182,1.0,3.0,82,0.00,,,0.00,VWS V14.00,2013-01-23 10:58:00,
2013-01-23 05:00:00,13.7,9.2,30.20,South,182,2.0,4.0,82,0.00,,,0.00,VWS V14.00,2013-01-23 11:00:00,
2013-01-23 05:03:00,13.8,9.3,30.20,South,182,2.0,3.0,82,0.00,,,0.00,VWS V14.00,2013-01-23 11:03:00,
2013-01-23 05:09:00,13.8,9.3,30.20,South,182,2.0,4.0,82,0.00,,,0.00,VWS V14.00,2013-01-23 11:09:00,
2013-01-23 05:14:00,13.9,9.4,30.20,South,182,3.0,4.0,82,0.00,,,0.00,VWS V14.00,2013-01-23 11:14:00,
2013-01-23 05:19:00,14.0,9.5,30.19,South,182,3.0,5.0,82,0.00,,,0.00,VWS V14.00,2013-01-23 11:19:00,
2013-01-23 05:24:00,14.0,9.5,30.19,South,182,2.0,5.0,82,0.00,,,0.00,VWS V14.00,2013-01-23 11:24:00,
2013-01-23 05:29:00,14.1,9.6,30.19,South,182,2.0,3.0,82,0.00,,,0.00,VWS V14.00,2013-01-23 11:29:00,
2013-01-23 05:30:00,14.1,9.6,30.19,South,182,2.0,5.0,82,0.00,,,0.00,VWS V14.00,2013-01-23 11:30:00,
2013-01-23 05:34:00,14.1,9.6,30.20,South,182,3.0,5.0,82,0.00,,,0.00,VWS V14.00,2013-01-23 11:34:00,
2013-01-23 05:39:00,14.2,9.7,30.20,South,182,2.0,5.0,82,0.00,,,0.00,VWS V14.00,2013-01-23 11:39:00,
2013-01-23 05:44:00,14.3,9.8,30.20,South,182,0.0,5.0,82,0.00,,,0.00,VWS V14.00,2013-01-23 11:44:00,
2013-01-23 05:49:00,14.3,9.6,30.20,South,182,0.0,5.0,81,0.00,,,0.00,VWS V14.00,2013-01-23 11:49:00,
2013-01-23 05:54:00,14.2,9.4,30.20,South,182,0.0,5.0,81,0.00,,,0.00,VWS V14.00,2013-01-23 11:54:00,
2013-01-23 05:59:00,14.1,9.4,30.20,South,182,0.0,0.0,81,0.00,,,0.00,VWS V14.00,2013-01-23 11:59:00,
2013-01-23 06:00:00,14.1,9.4,30.20,South,182,0.0,5.0,81,0.00,,,0.00,VWS V14.00,2013-01-23 12:00:00,
2013-01-23 06:04:00,14.1,9.4,30.20,South,182,2.0,3.0,81,0.00,,,0.00,VWS V14.00,2013-01-23 12:04:00,
2013-01-23 06:09:00,14.1,9.4,30.20,South,182,3.0,3.0,81,0.00,,,0.00,VWS V14.00,2013-01-23 12:09:00,
2013-01-23 06:14:00,14.1,9.4,30.21,South,182,0.0,3.0,81,0.00,,,0.00,VWS V14.00,2013-01-23 12:14:00,
2013-01-23 06:19:00,14.1,9.4,30.21,South,182,0.0,3.0,81,0.00,,,0.00,VWS V14.00,2013-01-23 12:19:00,
2013-01-23 06:24:00,13.9,9.4,30.22,South,182,0.0,3.0,82,0.00,,,0.00,VWS V14.00,2013-01-23 12:24:00,
2013-01-23 06:29:00,13.8,9.1,30.22,South,182,0.0,0.0,81,0.00,,,0.00,VWS V14.00,2013-01-23 12:29:00,
2013-01-23 06:30:00,13.8,9.1,30.22,South,182,0.0,3.0,81,0.00,,,0.00,VWS V14.00,2013-01-23 12:30:00,
2013-01-23 06:34:00,13.6,8.9,30.22,South,182,0.0,0.0,81,0.00,,,0.00,VWS V14.00,2013-01-23 12:34:00,
2013-01-23 06:40:00,13.5,8.8,30.22,South,182,0.0,0.0,81,0.00,,,0.00,VWS V14.00,2013-01-23 12:40:00,
2013-01-23 06:45:00,13.3,8.8,30.22,South,182,0.0,0.0,82,0.00,,,0.00,VWS V14.00,2013-01-23 12:45:00,
2013-01-23 06:50:00,13.2,9.0,30.21,South,182,0.0,0.0,83,0.00,,,0.00,VWS V14.00,2013-01-23 12:50:00,
2013-01-23 06:55:00,13.2,9.0,30.22,South,182,0.0,0.0,83,0.00,,,0.00,VWS V14.00,2013-01-23 12:55:00,
2013-01-23 07:00:00,13.2,9.0,30.22,South,182,0.0,0.0,83,0.00,,,0.00,VWS V14.00,2013-01-23 13:00:00,
2013-01-23 07:06:00,13.0,8.8,30.22,South,182,0.0,0.0,83,0.00,,,0.00,VWS V14.00,2013-01-23 13:06:00,
2013-01-23 07:11:00,12.9,8.7,30.22,South,182,0.0,0.0,83,0.00,,,0.00,VWS V14.00,2013-01-23 13:11:00,
2013-01-23 07:16:00,12.9,11.0,30.22,South,182,0.0,0.0,92,0.00,,,0.00,VWS V14.00,2013-01-23 13:16:00,
2013-01-23 07:21:00,12.7,8.5,30.22,South,182,0.0,0.0,83,0.00,,,0.00,VWS V14.00,2013-01-23 13:21:00,
2013-01-23 07:26:00,12.6,8.4,30.22,South,182,0.0,0.0,83,0.00,,,0.00,VWS V14.00,2013-01-23 13:26:00,
2013-01-23 07:30:00,12.6,8.4,30.22,South,182,0.0,0.0,83,0.00,,,0.00,VWS V14.00,2013-01-23 13:30:00,
2013-01-23 07:31:00,12.5,8.6,30.22,South,182,0.0,0.0,84,0.00,,,0.00,VWS V14.00,2013-01-23 13:31:00,
2013-01-23 07:36:00,12.5,8.6,30.22,South,182,0.0,0.0,84,0.00,,,0.00,VWS V14.00,2013-01-23 13:36:00,
2013-01-23 07:41:00,12.4,8.5,30.23,South,182,0.0,0.0,84,0.00,,,0.00,VWS V14.00,2013-01-23 13:41:00,
2013-01-23 07:46:00,12.3,8.4,30.22,South,182,0.0,0.0,84,0.00,,,0.00,VWS V14.00,2013-01-23 13:46:00,
2013-01-23 07:51:00,12.2,8.3,30.22,South,182,0.0,0.0,84,0.00,,,0.00,VWS V14.00,2013-01-23 13:51:00,
2013-01-23 07:56:00,12.1,8.5,30.22,South,182,0.0,0.0,85,0.00,,,0.00,VWS V14.00,2013-01-23 13:56:00,
2013-01-23 08:00:00,12.1,8.5,30.22,South,182,0.0,0.0,85,0.00,,,0.00,VWS V14.00,2013-01-23 14:00:00,
2013-01-23 08:01:00,12.1,8.5,30.22,South,182,0.0,0.0,85,0.00,,,0.00,VWS V14.00,2013-01-23 14:01:00,
2013-01-23 08:06:00,12.0,8.4,30.22,South,182,0.0,0.0,85,0.00,,,0.00,VWS V14.00,2013-01-23 14:06:00,
2013-01-23 08:11:00,11.9,8.3,30.22,South,182,0.0,0.0,85,0.00,,,0.00,VWS V14.00,2013-01-23 14:11:00,
2013-01-23 08:16:00,11.9,8.3,30.22,South,182,0.0,0.0,85,0.00,,,0.00,VWS V14.00,2013-01-23 14:16:00,
2013-01-23 08:21:00,12.1,8.7,30.23,South,182,0.0,0.0,86,0.00,,,0.00,VWS V14.00,2013-01-23 14:21:00,
2013-01-23 08:26:00,12.2,8.8,30.23,South,182,0.0,0.0,86,0.00,,,0.00,VWS V14.00,2013-01-23 14:26:00,
2013-01-23 08:30:00,12.3,8.9,30.23,South,182,0.0,0.0,86,0.00,,,0.00,VWS V14.00,2013-01-23 14:30:00,
2013-01-23 08:31:00,12.5,9.4,30.23,South,182,0.0,0.0,87,0.00,,,0.00,VWS V14.00,2013-01-23 14:31:00,
2013-01-23 08:36:00,12.8,9.7,30.23,South,182,0.0,0.0,87,0.00,,,0.00,VWS V14.00,2013-01-23 14:36:00,
2013-01-23 08:41:00,13.3,10.2,30.24,South,182,0.0,0.0,87,0.00,,,0.00,VWS V14.00,2013-01-23 14:41:00,
2013-01-23 08:46:00,13.7,10.6,30.24,South,182,0.0,0.0,87,0.00,,,0.00,VWS V14.00,2013-01-23 14:46:00,
2013-01-23 08:51:00,14.3,11.1,30.24,South,182,0.0,0.0,87,0.00,,,0.00,VWS V14.00,2013-01-23 14:51:00,
2013-01-23 08:56:00,14.9,11.5,30.24,South,182,2.0,5.0,86,0.00,,,0.00,VWS V14.00,2013-01-23 14:56:00,
2013-01-23 09:00:00,15.1,11.7,30.24,South,182,0.0,5.0,86,0.00,,,0.00,VWS V14.00,2013-01-23 15:00:00,
2013-01-23 09:01:00,15.5,12.1,30.24,South,182,0.0,0.0,86,0.00,,,0.00,VWS V14.00,2013-01-23 15:01:00,
2013-01-23 09:06:00,16.2,12.5,30.25,South,182,2.0,5.0,85,0.00,,,0.00,VWS V14.00,2013-01-23 15:06:00,
2013-01-23 09:11:00,16.8,12.8,30.25,South,182,0.0,5.0,84,0.00,,,0.00,VWS V14.00,2013-01-23 15:11:00,
2013-01-23 09:16:00,17.2,13.2,30.25,South,182,2.0,5.0,84,0.00,,,0.00,VWS V14.00,2013-01-23 15:16:00,
2013-01-23 09:21:00,17.7,12.9,30.25,South,182,4.0,5.0,81,0.00,,,0.00,VWS V14.00,2013-01-23 15:21:00,
2013-01-23 09:26:00,18.0,12.9,30.26,South,182,3.0,5.0,80,0.00,,,0.00,VWS V14.00,2013-01-23 15:26:00,
2013-01-23 09:30:00,18.2,13.1,30.26,South,182,0.0,5.0,80,0.00,,,0.00,VWS V14.00,2013-01-23 15:30:00,
2013-01-23 09:31:00,18.5,13.4,30.26,South,182,1.0,7.0,80,0.00,,,0.00,VWS V14.00,2013-01-23 15:31:00,
2013-01-23 09:36:00,19.0,13.9,30.27,South,182,4.0,7.0,80,0.00,,,0.00,VWS V14.00,2013-01-23 15:36:00,
2013-01-23 09:41:00,19.5,13.8,30.26,NNE,13,4.0,10.0,78,0.00,,,0.00,VWS V14.00,2013-01-23 15:41:00,
2013-01-23 09:46:00,20.0,14.3,30.27,NNE,13,6.0,10.0,78,0.00,,,0.00,VWS V14.00,2013-01-23 15:46:00,
2013-01-23 09:51:00,20.4,14.4,30.27,North,5,5.0,10.0,77,0.00,,,0.00,VWS V14.00,2013-01-23 15:51:00,
2013-01-23 09:56:00,20.7,14.4,30.27,NNE,12,3.0,10.0,76,0.00,,,0.00,VWS V14.00,2013-01-23 15:56:00,
2013-01-23 10:00:00,20.8,14.4,30.27,North,9,6.0,10.0,76,0.00,,,0.00,VWS V14.00,2013-01-23 16:00:00,
2013-01-23 10:02:00,21.0,14.6,30.27,North,5,4.0,10.0,76,0.00,,,0.00,VWS V14.00,2013-01-23 16:02:00,
2013-01-23 10:07:00,21.3,14.9,30.28,North,5,2.0,10.0,76,0.00,,,0.00,VWS V14.00,2013-01-23 16:07:00,
2013-01-23 10:12:00,21.8,15.4,30.28,North,11,3.0,10.0,76,0.00,,,0.00,VWS V14.00,2013-01-23 16:12:00,
2013-01-23 10:17:00,22.3,15.6,30.28,North,5,4.0,10.0,75,0.00,,,0.00,VWS V14.00,2013-01-23 16:17:00,
2013-01-23 10:22:00,22.9,16.2,30.28,North,5,1.0,10.0,75,0.00,,,0.00,VWS V14.00,2013-01-23 16:22:00,
2013-01-23 10:27:00,23.6,16.5,30.29,North,5,4.0,10.0,74,0.00,,,0.00,VWS V14.00,2013-01-23 16:27:00,
2013-01-23 10:30:00,23.8,17.0,30.29,North,5,2.0,10.0,75,0.00,,,0.00,VWS V14.00,2013-01-23 16:30:00,
2013-01-23 10:32:00,24.4,17.3,30.29,NE,39,7.0,9.0,74,0.00,,,0.00,VWS V14.00,2013-01-23 16:32:00,
2013-01-23 10:37:00,25.3,17.9,30.29,NNE,32,4.0,10.0,73,0.00,,,0.00,VWS V14.00,2013-01-23 16:37:00,
2013-01-23 10:42:00,26.0,17.9,30.29,NNE,28,4.0,14.0,71,0.00,,,0.00,VWS V14.00,2013-01-23 16:42:00,
2013-01-23 10:47:00,26.5,18.0,30.29,NNE,14,6.0,17.0,70,0.00,,,0.00,VWS V14.00,2013-01-23 16:47:00,
2013-01-23 10:52:00,26.8,18.3,30.29,North,11,6.0,17.0,70,0.00,,,0.00,VWS V14.00,2013-01-23 16:52:00,
2013-01-23 10:57:00,26.8,18.0,30.29,North,5,11.0,17.0,69,0.00,,,0.00,VWS V14.00,2013-01-23 16:57:00,
2013-01-23 11:00:00,26.8,18.0,30.29,NNE,13,6.0,17.0,69,0.00,,,0.00,VWS V14.00,2013-01-23 17:00:00,
2013-01-23 11:02:00,26.7,18.2,30.29,NNE,21,6.0,12.0,70,0.00,,,0.00,VWS V14.00,2013-01-23 17:02:00,
2013-01-23 11:07:00,26.7,17.9,30.29,NNE,13,5.0,12.0,69,0.00,,,0.00,VWS V14.00,2013-01-23 17:07:00,
2013-01-23 11:12:00,26.9,18.8,30.29,NE,37,8.0,12.0,71,0.00,,,0.00,VWS V14.00,2013-01-23 17:12:00,
2013-01-23 11:17:00,27.2,19.1,30.29,NE,36,3.0,12.0,71,0.00,,,0.00,VWS V14.00,2013-01-23 17:17:00,
2013-01-23 11:22:00,27.7,19.2,30.29,NE,34,10.0,13.0,70,0.00,,,0.00,VWS V14.00,2013-01-23 17:22:00,
2013-01-23 11:27:00,28.1,18.9,30.29,North,11,12.0,20.0,68,0.00,,,0.00,VWS V14.00,2013-01-23 17:27:00,
2013-01-23 11:30:00,28.1,18.9,30.29,NE,38,2.0,20.0,68,0.00,,,0.00,VWS V14.00,2013-01-23 17:30:00,
2013-01-23 11:32:00,28.2,19.0,30.29,NNE,26,11.0,17.0,68,0.00,,,0.00,VWS V14.00,2013-01-23 17:32:00,
2013-01-23 11:37:00,28.4,19.5,30.29,NE,40,8.0,17.0,69,0.00,,,0.00,VWS V14.00,2013-01-23 17:37:00,
2013-01-23 11:42:00,28.5,19.3,30.29,NE,34,3.0,17.0,68,0.00,,,0.00,VWS V14.00,2013-01-23 17:42:00,
2013-01-23 11:47:00,28.6,19.0,30.29,North,11,5.0,17.0,67,0.00,,,0.00,VWS V14.00,2013-01-23 17:47:00,
2013-01-23 11:52:00,28.6,19.0,30.29,NE,42,11.0,17.0,67,0.00,,,0.00,VWS V14.00,2013-01-23 17:52:00,
2013-01-23 11:57:00,28.6,19.0,30.29,NNE,26,7.0,17.0,67,0.00,,,0.00,VWS V14.00,2013-01-23 17:57:00,
2013-01-23 12:00:00,28.6,19.0,30.30,NNE,32,5.0,17.0,67,0.00,,,0.00,VWS V14.00,2013-01-23 18:00:00,
2013-01-23 12:02:00,28.7,19.5,30.30,NNE,32,5.0,14.0,68,0.00,,,0.00,VWS V14.00,2013-01-23 18:02:00,
2013-01-23 12:07:00,29.3,20.1,30.30,NNE,16,7.0,14.0,68,0.00,,,0.00,VWS V14.00,2013-01-23 18:07:00,
2013-01-23 12:12:00,29.9,20.3,30.30,NNE,26,3.0,14.0,67,0.00,,,0.00,VWS V14.00,2013-01-23 18:12:00,
2013-01-23 12:17:00,30.5,20.9,30.30,NNE,15,8.0,15.0,67,0.00,,,0.00,VWS V14.00,2013-01-23 18:17:00,
2013-01-23 12:22:00,31.0,21.0,30.30,NNE,22,11.0,15.0,66,0.00,,,0.00,VWS V14.00,2013-01-23 18:22:00,
2013-01-23 12:27:00,31.4,20.6,30.30,North,11,9.0,16.0,64,0.00,,,0.00,VWS V14.00,2013-01-23 18:27:00,
2013-01-23 12:30:00,31.4,20.6,30.30,North,360,4.0,16.0,64,0.00,,,0.00,VWS V14.00,2013-01-23 18:30:00,
2013-01-23 12:32:00,31.6,20.8,30.30,NNE,15,5.0,13.0,64,0.00,,,0.00,VWS V14.00,2013-01-23 18:32:00,
2013-01-23 12:37:00,31.9,21.5,30.30,NNE,24,10.0,14.0,65,0.00,,,0.00,VWS V14.00,2013-01-23 18:37:00,
2013-01-23 12:42:00,32.3,21.5,30.30,North,355,6.0,15.0,64,0.00,,,0.00,VWS V14.00,2013-01-23 18:42:00,
2013-01-23 12:47:00,32.5,22.1,30.30,NNE,21,8.0,15.0,65,0.00,,,0.00,VWS V14.00,2013-01-23 18:47:00,
2013-01-23 12:52:00,33.0,22.5,30.30,NNE,14,6.0,15.0,65,0.00,,,0.00,VWS V14.00,2013-01-23 18:52:00,
2013-01-23 12:57:00,33.4,22.2,30.30,North,5,3.0,15.0,63,0.00,,,0.00,VWS V14.00,2013-01-23 18:57:00,
2013-01-23 13:00:00,33.4,22.2,30.30,NNE,19,7.0,15.0,63,0.00,,,0.00,VWS V14.00,2013-01-23 19:00:00,
2013-01-23 13:03:00,33.6,22.7,30.30,NNE,21,6.0,12.0,64,0.00,,,0.00,VWS V14.00,2013-01-23 19:03:00,
2013-01-23 13:08:00,33.8,22.2,30.30,North,5,6.0,15.0,62,0.00,,,0.00,VWS V14.00,2013-01-23 19:08:00,
2013-01-23 13:13:00,33.8,21.8,30.30,NNE,14,11.0,16.0,61,0.00,,,0.00,VWS V14.00,2013-01-23 19:13:00,
2013-01-23 13:18:00,33.8,22.2,30.31,North,355,10.0,16.0,62,0.00,,,0.00,VWS V14.00,2013-01-23 19:18:00,
2013-01-23 13:23:00,33.8,21.8,30.30,North,5,5.0,16.0,61,0.00,,,0.00,VWS V14.00,2013-01-23 19:23:00,
2013-01-23 13:28:00,33.8,21.8,30.31,NE,38,5.0,16.0,61,0.00,,,0.00,VWS V14.00,2013-01-23 19:28:00,
2013-01-23 13:30:00,33.7,21.7,30.31,NE,35,6.0,16.0,61,0.00,,,0.00,VWS V14.00,2013-01-23 19:30:00,
2013-01-23 13:33:00,33.9,21.9,30.30,NE,35,6.0,12.0,61,0.00,,,0.00,VWS V14.00,2013-01-23 19:33:00,
2013-01-23 13:38:00,34.3,21.9,30.30,NNE,27,5.0,12.0,60,0.00,,,0.00,VWS V14.00,2013-01-23 19:38:00,
2013-01-23 13:43:00,34.4,22.0,30.30,ENE,59,12.0,13.0,60,0.00,,,0.00,VWS V14.00,2013-01-23 19:43:00,
2013-01-23 13:48:00,34.6,22.2,30.30,NE,53,6.0,14.0,60,0.00,,,0.00,VWS V14.00,2013-01-23 19:48:00,
2013-01-23 13:53:00,34.8,22.3,30.30,NNE,16,5.0,14.0,60,0.00,,,0.00,VWS V14.00,2013-01-23 19:53:00,
2013-01-23 13:58:00,35.0,21.7,30.30,NNE,27,11.0,16.0,58,0.00,,,0.00,VWS V14.00,2013-01-23 19:58:00,
2013-01-23 14:00:00,35.1,22.2,30.30,NE,46,4.0,16.0,59,0.00,,,0.00,VWS V14.00,2013-01-23 20:00:00,
2013-01-23 14:03:00,35.1,21.8,30.30,NE,39,5.0,12.0,58,0.01,,,0.01,VWS V14.00,2013-01-23 20:03:00,
2013-01-23 14:08:00,35.2,22.3,30.30,NE,39,6.0,14.0,59,0.01,,,0.01,VWS V14.00,2013-01-23 20:08:00,
2013-01-23 14:13:00,35.0,21.7,30.30,NE,46,7.0,17.0,58,0.01,,,0.01,VWS V14.00,2013-01-23 20:13:00,
2013-01-23 14:18:00,34.6,21.0,30.30,NNE,23,8.0,17.0,57,0.01,,,0.01,VWS V14.00,2013-01-23 20:18:00,
2013-01-23 14:23:00,34.1,21.3,30.30,NE,36,7.0,17.0,59,0.01,,,0.01,VWS V14.00,2013-01-23 20:23:00,
2013-01-23 14:28:00,33.6,20.4,30.31,North,355,9.0,17.0,58,0.01,,,0.01,VWS V14.00,2013-01-23 20:28:00,
2013-01-23 14:30:00,33.6,20.4,30.31,NNE,21,5.0,17.0,58,0.01,,,0.01,VWS V14.00,2013-01-23 20:30:00,
2013-01-23 14:33:00,33.0,20.6,30.31,NE,56,6.0,14.0,60,0.01,,,0.01,VWS V14.00,2013-01-23 20:33:00,
2013-01-23 14:38:00,32.6,20.3,30.31,NNE,28,4.0,14.0,60,0.01,,,0.01,VWS V14.00,2013-01-23 20:38:00,
2013-01-23 14:43:00,32.3,20.4,30.32,NNE,22,4.0,14.0,61,0.01,,,0.01,VWS V14.00,2013-01-23 20:43:00,
2013-01-23 14:48:00,32.1,20.2,30.32,NE,34,11.0,16.0,61,0.01,,,0.01,VWS V14.00,2013-01-23 20:48:00,
2013-01-23 14:53:00,32.1,20.2,30.32,NNE,25,6.0,16.0,61,0.01,,,0.01,VWS V14.00,2013-01-23 20:53:00,
2013-01-23 14:58:00,32.2,20.3,30.31,NNE,29,6.0,16.0,61,0.01,,,0.01,VWS V14.00,2013-01-23 20:58:00,
2013-01-23 15:00:00,32.2,20.3,30.31,NNE,29,6.0,16.0,61,0.01,,,0.01,VWS V14.00,2013-01-23 21:00:00,
2013-01-23 15:03:00,32.4,20.5,30.31,NNE,22,11.0,16.0,61,0.01,,,0.01,VWS V14.00,2013-01-23 21:03:00,
2013-01-23 15:08:00,32.5,20.2,30.31,ENE,59,14.0,16.0,60,0.01,,,0.01,VWS V14.00,2013-01-23 21:08:00,
2013-01-23 15:13:00,32.6,20.3,30.31,NE,36,5.0,16.0,60,0.01,,,0.01,VWS V14.00,2013-01-23 21:13:00,
2013-01-23 15:18:00,32.7,20.0,30.31,NE,34,8.0,16.0,59,0.01,,,0.01,VWS V14.00,2013-01-23 21:18:00,
2013-01-23 15:23:00,32.9,20.5,30.31,NNE,17,8.0,16.0,60,0.01,,,0.01,VWS V14.00,2013-01-23 21:23:00,
2013-01-23 15:28:00,33.0,20.2,30.32,NE,34,0.0,2.0,59,0.00,,,0.01,VWS V14.00,2013-01-23 21:28:00,
2013-01-23 15:30:00,33.0,20.2,30.32,NE,34,2.0,16.0,59,0.01,,,0.01,VWS V14.00,2013-01-23 21:30:00,
2013-01-23 15:33:00,32.9,19.8,30.33,NNE,20,6.0,13.0,58,0.00,,,0.01,VWS V14.00,2013-01-23 21:33:00,
2013-01-23 15:38:00,32.9,19.8,30.33,North,5,8.0,15.0,58,0.00,,,0.01,VWS V14.00,2013-01-23 21:38:00,
2013-01-23 15:43:00,31.9,19.2,30.33,NE,34,1.0,15.0,59,0.00,,,0.01,VWS V14.00,2013-01-23 21:43:00,
2013-01-23 15:49:00,31.5,18.8,30.33,NE,34,9.0,15.0,59,0.00,,,0.01,VWS V14.00,2013-01-23 21:49:00,
2013-01-23 15:54:00,31.1,18.9,30.33,NNE,16,14.0,16.0,60,0.00,,,0.01,VWS V14.00,2013-01-23 21:54:00,
2013-01-23 15:59:00,30.7,18.5,30.33,NE,35,8.0,9.0,60,0.00,,,0.01,VWS V14.00,2013-01-23 21:59:00,
2013-01-23 16:00:00,30.7,18.5,30.33,NE,38,5.0,16.0,60,0.00,,,0.01,VWS V14.00,2013-01-23 22:00:00,
2013-01-23 16:04:00,30.3,18.5,30.33,NNE,26,4.0,14.0,61,0.00,,,0.01,VWS V14.00,2013-01-23 22:04:00,
2013-01-23 16:09:00,29.9,18.1,30.34,NNE,28,6.0,14.0,61,0.00,,,0.01,VWS V14.00,2013-01-23 22:09:00,
2013-01-23 16:14:00,29.6,18.2,30.34,NNE,13,3.0,16.0,62,0.00,,,0.01,VWS V14.00,2013-01-23 22:14:00,
2013-01-23 16:19:00,29.4,17.6,30.35,NE,48,5.0,16.0,61,0.00,,,0.01,VWS V14.00,2013-01-23 22:19:00,
2013-01-23 16:24:00,29.2,17.4,30.35,NNE,30,5.0,22.0,61,0.00,,,0.01,VWS V14.00,2013-01-23 22:24:00,
2013-01-23 16:29:00,28.9,17.5,30.36,NNE,30,4.0,8.0,62,0.00,,,0.01,VWS V14.00,2013-01-23 22:29:00,
2013-01-23 16:30:00,28.9,17.2,30.36,NNE,18,5.0,22.0,61,0.00,,,0.01,VWS V14.00,2013-01-23 22:30:00,
2013-01-23 16:34:00,28.6,17.2,30.36,North,9,8.0,12.0,62,0.00,,,0.01,VWS V14.00,2013-01-23 22:34:00,
2013-01-23 16:39:00,28.3,17.0,30.36,NNE,17,10.0,16.0,62,0.00,,,0.01,VWS V14.00,2013-01-23 22:39:00,
2013-01-23 16:44:00,28.0,17.0,30.35,NE,34,8.0,16.0,63,0.00,,,0.01,VWS V14.00,2013-01-23 22:44:00,
2013-01-23 16:49:00,27.6,16.7,30.35,NE,47,5.0,16.0,63,0.00,,,0.01,VWS V14.00,2013-01-23 22:49:00,
2013-01-23 16:54:00,27.3,16.8,30.36,NE,44,5.0,17.0,64,0.00,,,0.01,VWS V14.00,2013-01-23 22:54:00,
2013-01-23 16:59:00,27.0,16.5,30.36,NNE,21,4.0,12.0,64,0.00,,,0.01,VWS V14.00,2013-01-23 22:59:00,
2013-01-23 17:00:00,27.1,16.6,30.36,NNE,30,8.0,17.0,64,0.00,,,0.01,VWS V14.00,2013-01-23 23:00:00,
2013-01-23 17:04:00,26.8,16.3,30.36,NNE,31,5.0,14.0,64,0.00,,,0.01,VWS V14.00,2013-01-23 23:04:00,
2013-01-23 17:09:00,26.5,16.0,30.36,NE,36,6.0,19.0,64,0.00,,,0.01,VWS V14.00,2013-01-23 23:09:00,
2013-01-23 17:14:00,26.3,15.8,30.37,NNE,27,6.0,19.0,64,0.00,,,0.01,VWS V14.00,2013-01-23 23:14:00,
2013-01-23 17:19:00,26.0,15.9,30.37,NNE,29,11.0,19.0,65,0.00,,,0.01,VWS V14.00,2013-01-23 23:19:00,
2013-01-23 17:24:00,25.6,15.5,30.38,NNE,24,5.0,19.0,65,0.00,,,0.01,VWS V14.00,2013-01-23 23:24:00,
2013-01-23 17:29:00,25.4,15.6,30.39,NE,42,6.0,10.0,66,0.00,,,0.01,VWS V14.00,2013-01-23 23:29:00,
2013-01-23 17:30:00,25.4,15.6,30.39,NE,55,5.0,19.0,66,0.00,,,0.01,VWS V14.00,2013-01-23 23:30:00,
2013-01-23 17:34:00,24.9,15.5,30.39,NNE,17,9.0,11.0,67,0.00,,,0.01,VWS V14.00,2013-01-23 23:34:00,
2013-01-23 17:39:00,24.5,15.5,30.38,ENE,70,8.0,13.0,68,0.00,,,0.01,VWS V14.00,2013-01-23 23:39:00,
2013-01-23 17:44:00,24.2,15.2,30.39,ENE,59,7.0,13.0,68,0.00,,,0.01,VWS V14.00,2013-01-23 23:44:00,
2013-01-23 17:49:00,23.8,15.1,30.39,NE,35,4.0,13.0,69,0.00,,,0.01,VWS V14.00,2013-01-23 23:49:00,
2013-01-23 17:54:00,23.6,14.9,30.39,NE,34,4.0,13.0,69,0.00,,,0.01,VWS V14.00,2013-01-23 23:54:00,
2013-01-23 17:59:00,23.4,15.1,30.40,NE,43,5.0,9.0,70,0.00,,,0.01,VWS V14.00,2013-01-23 23:59:00,
2013-01-23 18:00:00,23.4,15.1,30.39,NE,46,3.0,13.0,70,0.00,,,0.01,VWS V14.00,2013-01-24 00:00:00,
2013-01-23 18:04:00,23.1,15.1,30.40,NE,34,3.0,10.0,71,0.00,,,0.01,VWS V14.00,2013-01-24 00:04:00,
2013-01-23 18:09:00,22.9,14.9,30.40,NE,44,6.0,11.0,71,0.00,,,0.01,VWS V14.00,2013-01-24 00:09:00,
2013-01-23 18:14:00,22.7,14.1,30.41,NNE,33,5.0,14.0,69,0.00,,,0.01,VWS V14.00,2013-01-24 00:14:00,
2013-01-23 18:19:00,22.5,13.9,30.41,North,9,11.0,17.0,69,0.00,,,0.01,VWS V14.00,2013-01-24 00:19:00,
2013-01-23 18:24:00,22.3,13.7,30.41,NE,38,8.0,17.0,69,0.00,,,0.01,VWS V14.00,2013-01-24 00:24:00,
2013-01-23 18:29:00,22.3,13.7,30.42,NNE,23,10.0,11.0,69,0.00,,,0.01,VWS V14.00,2013-01-24 00:29:00,
2013-01-23 18:30:00,22.3,13.7,30.41,NE,35,5.0,17.0,69,0.00,,,0.01,VWS V14.00,2013-01-24 00:30:00,
2013-01-23 18:34:00,22.3,13.7,30.42,North,5,6.0,12.0,69,0.00,,,0.01,VWS V14.00,2013-01-24 00:34:00,
2013-01-23 18:39:00,22.3,13.7,30.42,NNE,19,11.0,14.0,69,0.00,,,0.01,VWS V14.00,2013-01-24 00:39:00,
2013-01-23 18:44:00,22.3,13.7,30.42,NNE,30,6.0,15.0,69,0.00,,,0.01,VWS V14.00,2013-01-24 00:44:00,
2013-01-23 18:49:00,22.3,13.7,30.42,NE,50,8.0,15.0,69,0.00,,,0.01,VWS V14.00,2013-01-24 00:49:00,
2013-01-23 18:54:00,22.3,13.7,30.42,NNE,29,4.0,15.0,69,0.00,,,0.01,VWS V14.00,2013-01-24 00:54:00,
2013-01-23 18:59:00,22.3,13.7,30.42,NNE,31,7.0,10.0,69,0.00,,,0.01,VWS V14.00,2013-01-24 00:59:00,
2013-01-23 19:00:00,22.3,13.7,30.42,NE,34,5.0,15.0,69,0.00,,,0.01,VWS V14.00,2013-01-24 01:00:00,
2013-01-23 19:05:00,22.3,13.7,30.43,NE,55,3.0,14.0,69,0.00,,,0.01,VWS V14.00,2013-01-24 01:05:00,
2013-01-23 19:10:00,22.3,13.7,30.43,North,5,11.0,18.0,69,0.00,,,0.01,VWS V14.00,2013-01-24 01:10:00,
2013-01-23 19:15:00,22.3,13.7,30.43,NE,35,3.0,18.0,69,0.00,,,0.01,VWS V14.00,2013-01-24 01:15:00,
2013-01-23 19:20:00,22.3,13.7,30.44,NNE,31,7.0,18.0,69,0.00,,,0.01,VWS V14.00,2013-01-24 01:20:00,
2013-01-23 19:25:00,22.3,13.7,30.44,NNE,18,7.0,18.0,69,0.00,,,0.01,VWS V14.00,2013-01-24 01:25:00,
2013-01-23 19:30:00,22.3,13.7,30.44,NE,48,10.0,17.0,69,0.00,,,0.01,VWS V14.00,2013-01-24 01:30:00,
2013-01-23 19:35:00,22.3,13.7,30.44,NNE,19,8.0,17.0,69,0.00,,,0.01,VWS V14.00,2013-01-24 01:35:00,
2013-01-23 19:40:00,19.2,10.4,30.45,ENE,75,12.0,18.0,68,0.00,,,0.01,VWS V14.00,2013-01-24 01:40:00,
2013-01-23 19:45:00,18.9,10.1,30.45,NNE,31,13.0,18.0,68,0.00,,,0.01,VWS V14.00,2013-01-24 01:45:00,
2013-01-23 19:50:00,18.7,9.9,30.45,ENE,57,10.0,18.0,68,0.00,,,0.01,VWS V14.00,2013-01-24 01:50:00,
2013-01-23 19:55:00,18.5,9.7,30.45,NE,43,5.0,24.0,68,0.00,,,0.01,VWS V14.00,2013-01-24 01:55:00,
2013-01-23 20:00:00,18.3,9.5,30.45,ENE,61,14.0,16.0,68,0.00,,,0.01,VWS V14.00,2013-01-24 02:00:00,
2013-01-23 20:05:00,18.1,9.3,30.45,NE,36,17.0,22.0,68,0.00,,,0.01,VWS V14.00,2013-01-24 02:05:00,
2013-01-23 20:10:00,17.9,8.8,30.45,ENE,57,11.0,22.0,67,0.00,,,0.01,VWS V14.00,2013-01-24 02:10:00,
2013-01-23 20:15:00,17.7,8.3,30.45,NNE,26,12.0,22.0,66,0.00,,,0.01,VWS V14.00,2013-01-24 02:15:00,
2013-01-23 20:20:00,17.5,8.1,30.46,NNE,24,6.0,22.0,66,0.00,,,0.01,VWS V14.00,2013-01-24 02:20:00,
2013-01-23 20:25:00,17.3,7.9,30.46,NNE,22,4.0,22.0,66,0.00,,,0.01,VWS V14.00,2013-01-24 02:25:00,
2013-01-23 20:30:00,17.2,7.8,30.47,NNE,29,5.0,12.0,66,0.00,,,0.01,VWS V14.00,2013-01-24 02:30:00,
2013-01-23 20:35:00,17.0,7.9,30.47,NE,44,5.0,14.0,67,0.00,,,0.01,VWS V14.00,2013-01-24 02:35:00,
2013-01-23 20:40:00,16.9,7.8,30.47,NNE,28,8.0,14.0,67,0.00,,,0.01,VWS V14.00,2013-01-24 02:40:00,
2013-01-23 20:45:00,16.7,7.7,30.47,NE,35,9.0,14.0,67,0.00,,,0.01,VWS V14.00,2013-01-24 02:45:00,
2013-01-23 20:50:00,16.6,7.6,30.47,NE,43,5.0,14.0,67,0.00,,,0.01,VWS V14.00,2013-01-24 02:50:00,
2013-01-23 20:55:00,16.4,7.4,30.46,NNE,32,5.0,14.0,67,0.00,,,0.01,VWS V14.00,2013-01-24 02:55:00,
2013-01-23 21:00:00,16.3,7.3,30.47,NE,42,4.0,7.0,67,0.00,,,0.01,VWS V14.00,2013-01-24 03:00:00,
2013-01-23 21:05:00,16.1,7.1,30.48,NE,44,7.0,12.0,67,0.00,,,0.01,VWS V14.00,2013-01-24 03:05:00,
2013-01-23 21:11:00,15.9,7.2,30.48,NE,35,5.0,12.0,68,0.00,,,0.01,VWS V14.00,2013-01-24 03:11:00,
2013-01-23 21:16:00,15.8,7.1,30.48,NNE,17,12.0,13.0,68,0.00,,,0.01,VWS V14.00,2013-01-24 03:16:00,
2013-01-23 21:21:00,15.6,7.3,30.48,NNE,30,5.0,16.0,69,0.00,,,0.01,VWS V14.00,2013-01-24 03:21:00,
2013-01-23 21:26:00,15.5,7.2,30.48,NE,44,5.0,16.0,69,0.00,,,0.01,VWS V14.00,2013-01-24 03:26:00,
2013-01-23 21:30:00,15.4,7.1,30.48,ENE,59,3.0,16.0,69,0.00,,,0.01,VWS V14.00,2013-01-24 03:30:00,
2013-01-23 21:31:00,15.4,7.1,30.48,NE,42,5.0,11.0,69,0.00,,,0.01,VWS V14.00,2013-01-24 03:31:00,
2013-01-23 21:36:00,15.4,7.1,30.48,NNE,26,2.0,11.0,69,0.00,,,0.01,VWS V14.00,2013-01-24 03:36:00,
2013-01-23 21:41:00,15.4,7.1,30.48,NNE,26,3.0,11.0,69,0.00,,,0.01,VWS V14.00,2013-01-24 03:41:00,
2013-01-23 21:46:00,15.4,7.1,30.48,NNE,33,1.0,11.0,69,0.00,,,0.01,VWS V14.00,2013-01-24 03:46:00,
2013-01-23 21:51:00,15.4,7.1,30.48,NNE,31,3.0,11.0,69,0.00,,,0.01,VWS V14.00,2013-01-24 03:51:00,
2013-01-23 21:56:00,15.4,7.1,30.49,NE,51,0.0,11.0,69,0.00,,,0.01,VWS V14.00,2013-01-24 03:56:00,
2013-01-23 22:00:00,14.6,6.9,30.49,NE,38,2.0,11.0,71,0.00,,,0.01,VWS V14.00,2013-01-24 04:00:00,
2013-01-23 22:01:00,14.6,6.9,30.50,NNE,32,3.0,7.0,71,0.00,,,0.01,VWS V14.00,2013-01-24 04:01:00,
2013-01-23 22:06:00,14.5,7.1,30.50,NE,34,9.0,9.0,72,0.00,,,0.01,VWS V14.00,2013-01-24 04:06:00,
2013-01-23 22:11:00,14.3,6.9,30.50,NNE,31,5.0,9.0,72,0.00,,,0.01,VWS V14.00,2013-01-24 04:11:00,
2013-01-23 22:16:00,14.2,6.8,30.51,NNE,28,5.0,9.0,72,0.00,,,0.01,VWS V14.00,2013-01-24 04:16:00,
2013-01-23 22:21:00,14.1,6.8,30.51,NNE,32,3.0,9.0,72,0.00,,,0.01,VWS V14.00,2013-01-24 04:21:00,
2013-01-23 22:26:00,14.0,7.0,30.51,NE,45,3.0,9.0,73,0.00,,,0.01,VWS V14.00,2013-01-24 04:26:00,
2013-01-23 22:30:00,13.9,6.6,30.51,ENE,57,6.0,9.0,72,0.00,,,0.01,VWS V14.00,2013-01-24 04:30:00,
2013-01-23 22:31:00,13.8,6.2,30.51,NE,47,7.0,10.0,71,0.00,,,0.01,VWS V14.00,2013-01-24 04:31:00,
2013-01-23 22:36:00,13.6,6.0,30.51,NE,38,1.0,11.0,71,0.00,,,0.01,VWS V14.00,2013-01-24 04:36:00,
2013-01-23 22:41:00,13.4,5.5,30.51,ENE,67,7.0,13.0,70,0.00,,,0.01,VWS V14.00,2013-01-24 04:41:00,
2013-01-23 22:46:00,13.3,5.4,30.52,ENE,57,7.0,13.0,70,0.00,,,0.01,VWS V14.00,2013-01-24 04:46:00,
2013-01-23 22:51:00,13.1,4.8,30.51,NNE,28,2.0,13.0,69,0.00,,,0.01,VWS V14.00,2013-01-24 04:51:00,
2013-01-23 22:56:00,12.9,5.0,30.52,NE,37,4.0,13.0,70,0.00,,,0.01,VWS V14.00,2013-01-24 04:56:00,
2013-01-23 23:00:00,12.9,5.0,30.52,NNE,32,5.0,13.0,70,0.00,,,0.01,VWS V14.00,2013-01-24 05:00:00,
2013-01-23 23:02:00,12.8,5.2,30.52,NNE,22,5.0,9.0,71,0.00,,,0.01,VWS V14.00,2013-01-24 05:02:00,
2013-01-23 23:03:00,12.7,5.1,30.52,NNE,22,5.0,9.0,71,0.00,,,0.01,VWS V14.00,2013-01-24 05:03:00,
2013-01-23 23:05:00,12.6,5.0,30.52,NNE,22,5.0,9.0,71,0.00,,,0.01,VWS V14.00,2013-01-24 05:05:00,
2013-01-23 23:11:00,12.5,4.9,30.53,NNE,22,5.0,9.0,71,0.00,,,0.01,VWS V14.00,2013-01-24 05:11:00,
2013-01-23 23:13:00,12.4,4.8,30.54,NNE,22,5.0,9.0,71,0.00,,,0.01,VWS V14.00,2013-01-24 05:13:00,
2013-01-23 23:18:00,12.2,4.6,30.54,NNE,22,5.0,9.0,71,0.00,,,0.01,VWS V14.00,2013-01-24 05:18:00,
2013-01-23 23:23:00,12.2,4.6,30.54,NNE,22,5.0,9.0,71,0.00,,,0.01,VWS V14.00,2013-01-24 05:23:00,
2013-01-23 23:28:00,11.8,4.2,30.54,NE,44,0.0,9.0,71,0.00,,,0.01,VWS V14.00,2013-01-24 05:28:00,
2013-01-23 23:30:00,11.8,4.2,30.54,NE,43,4.0,9.0,71,0.00,,,0.01,VWS V14.00,2013-01-24 05:30:00,
2013-01-23 23:33:00,11.6,3.7,30.54,NE,54,3.0,8.0,70,0.00,,,0.01,VWS V14.00,2013-01-24 05:33:00,
2013-01-23 23:38:00,11.3,2.8,30.55,NE,52,4.0,11.0,68,0.00,,,0.01,VWS V14.00,2013-01-24 05:38:00,
2013-01-23 23:43:00,11.1,2.3,30.55,NE,49,6.0,11.0,67,0.00,,,0.01,VWS V14.00,2013-01-24 05:43:00,
2013-01-23 23:48:00,10.8,2.0,30.55,ENE,57,2.0,11.0,67,0.00,,,0.01,VWS V14.00,2013-01-24 05:48:00,
2013-01-23 23:53:00,10.8,2.0,30.55,NE,49,5.0,13.0,67,0.00,,,0.01,VWS V14.00,2013-01-24 05:53:00,
2013-01-23 23:58:00,10.3,1.5,30.55,NE,50,5.0,13.0,67,0.00,,,0.01,VWS V14.00,2013-01-24 05:58:00,